Theta_e
308 308 307 308 307 305 304 304 303 301 299 297 295 293 293 292 291 291 291 291 291 290 289 289 288 287 286 285 284 284 283 283 283 288 284 284 284 285 285 286 286 285 284
309 308 307 306 306 305 304 304 302 301 299 297 295 293 292 292 291 290 290 290 290 289 288 288 287 286 285 284 284 283 283 283 283 285 286 285 285 284 284 284 282 280 279
309 308 307 306 305 305 305 304 302 300 298 296 294 293 292 291 290 290 289 289 289 288 288 287 286 285 285 284 283 283 283 283 283 283 285 284 282 280 282 280 279 278 278
309 308 307 306 306 306 304 303 301 299 297 296 295 293 292 291 290 289 289 289 288 288 287 287 286 285 284 283 283 283 282 282 282 281 282 282 279 278 277 277 278 278 278
310 308 308 307 306 304 303 303 301 299 297 296 294 293 291 290 289 289 288 288 287 287 286 286 285 285 283 283 282 282 281 280 279 277 277 277 277 277 278 277 277 277 277
310 309 309 307 306 305 303 302 301 298 296 295 293 292 291 289 288 288 287 287 286 286 286 285 285 284 283 282 282 281 278 278 278 278 278 278 277 277 277 277 276 276 276
310 308 308 307 305 303 302 300 299 297 295 293 292 291 289 288 287 287 287 286 286 286 285 290 285 283 282 282 281 281 278 278 277 277 277 277 276 276 276 276 276 276 277
309 308 307 306 305 302 300 299 297 296 295 293 292 290 289 287 286 286 286 286 285 286 289 284 283 282 282 281 280 279 278 278 277 277 276 276 276 276 276 277 277 278 278
307 307 306 305 303 301 299 298 297 295 293 292 291 290 289 288 286 286 285 285 285 287 284 283 282 281 281 281 278 277 277 278 277 276 276 276 276 276 275 275 274 273 274
305 304 302 301 301 300 299 297 296 294 293 291 289 288 287 286 285 285 284 284 288 286 282 282 281 280 280 278 278 277 277 278 276 276 275 276 276 276 276 273 272 272 273
301 300 300 298 297 296 296 295 294 292 290 289 289 287 285 284 283 284 284 289 287 283 282 281 281 280 280 277 277 277 277 275 275 276 276 276 276 275 274 272 272 272 272
303 299 297 297 295 294 293 292 291 290 289 288 287 286 284 283 283 283 286 286 283 281 282 281 280 280 279 278 277 277 277 276 276 276 276 276 275 274 273 272 271 271 272
301 302 302 298 294 292 291 291 289 288 287 287 286 285 283 283 282 282 281 281 281 281 281 280 280 279 279 278 277 277 277 276 276 276 275 276 274 274 273 272 271 272 271
297 299 301 300 300 299 294 291 288 288 286 285 285 284 283 281 282 280 279 279 279 280 280 279 279 278 278 278 277 277 277 276 275 275 274 275 275 274 272 271 272 272 272
293 294 295 297 298 298 298 295 294 290 288 288 285 284 284 282 284 282 280 279 279 278 279 278 278 277 277 276 276 276 276 275 275 274 274 274 274 272 271 271 272 272 271
292 292 292 292 292 292 289 286 283 284 285 283 282 283 283 282 282 279 278 278 277 278 277 277 276 275 275 275 274 274 274 274 273 273 273 273 272 271 270 272 272 271 271
291 292 291 289 291 288 286 285 284 278 278 279 280 281 281 284 279 278 276 275 276 277 276 275 275 275 275 274 274 273 273 273 273 273 272 272 271 270 270 271 271 271 270
286 289 291 290 288 287 285 284 281 279 279 277 276 279 280 277 278 276 276 277 276 275 274 274 274 274 274 273 273 273 273 273 272 272 272 271 270 270 271 271 271 270 270
282 284 286 286 286 284 282 280 278 277 277 276 275 276 277 277 276 275 275 277 275 274 273 273 273 274 273 273 272 272 272 272 272 272 272 271 270 270 271 270 270 270 270
280 281 284 284 282 280 279 278 276 276 276 275 276 276 276 275 275 276 276 275 273 273 273 273 273 273 273 272 272 272 272 272 272 272 271 271 270 271 270 270 270 270 270
277 280 281 281 280 279 278 276 275 275 275 276 277 277 276 277 276 276 275 273 273 273 273 273 272 272 272 272 272 271 271 272 272 272 271 270 270 271 270 270 270 270 269
276 279 279 278 277 275 275 274 274 274 275 277 277 276 275 275 275 274 273 273 273 273 273 273 272 272 272 272 271 271 271 272 272 272 271 270 271 271 269 269 270 269 269
275 277 276 275 275 274 273 273 273 273 275 277 277 274 274 273 273 273 273 273 273 273 273 272 271 271 271 271 270 270 271 271 272 272 271 270 271 270 269 269 270 269 269
275 275 275 274 273 272 272 271 272 273 276 277 276 275 273 273 273 273 272 272 273 272 272 271 271 271 271 270 271 270 271 271 272 272 271 271 271 270 269 269 270 269 269
273 273 272 272 271 271 271 271 272 274 276 275 274 273 272 272 271 271 272 272 272 271 271 271 271 270 270 270 270 270 270 271 272 272 271 270 270 270 269 269 270 270 269
271 271 271 270 270 271 271 273 274 275 275 273 272 271 271 271 272 272 272 271 271 270 270 270 270 270 270 270 270 270 270 271 272 271 271 270 270 270 269 269 270 270 269
Wind_Speed
47 48 49 51 53 53 53 50 48 45 41 39 38 40 41 39 36 34 30 28 26 25 24 24 23 23 23 23 25 26 28 31 43 63 54 56 57 58 57 57 59 59 60
43 49 49 50 50 54 54 52 51 48 44 39 38 40 40 39 37 35 32 30 26 25 25 24 23 23 23 24 26 28 31 33 39 55 61 58 60 58 58 58 59 59 57
43 46 49 50 50 51 52 51 51 49 46 42 40 41 42 41 39 36 34 31 28 26 25 24 23 23 24 25 26 30 32 34 38 45 61 57 58 57 58 58 57 55 56
42 45 48 49 49 49 51 51 50 49 46 43 42 42 42 42 40 38 36 32 29 27 25 24 23 23 24 25 27 30 32 34 36 42 52 58 56 53 48 50 56 51 53
45 47 50 48 49 49 50 49 48 48 46 43 42 42 43 44 43 40 36 32 29 26 25 23 23 23 24 25 27 29 30 32 34 40 46 51 52 51 47 50 54 57 57
50 50 50 51 49 50 49 48 48 46 45 43 43 44 45 44 42 39 35 31 29 26 23 21 22 25 24 24 25 26 25 27 32 38 43 46 58 50 52 54 55 55 64
47 49 50 52 50 49 47 46 46 46 44 43 44 44 44 43 40 37 34 31 28 25 22 22 26 24 23 25 26 27 24 26 29 33 43 47 55 52 53 57 56 56 64
40 44 46 47 47 46 44 44 44 45 44 44 45 44 44 42 40 37 34 31 27 23 21 26 23 22 22 25 26 27 29 31 33 34 40 45 47 50 49 53 58 57 60
37 39 40 42 42 43 43 42 42 43 44 46 45 44 43 42 42 39 34 30 25 21 25 24 22 19 22 21 22 26 30 36 37 34 37 39 38 43 47 48 54 50 58
26 33 35 34 37 39 39 40 40 41 42 42 42 43 42 40 40 37 34 28 22 26 25 22 17 18 20 18 20 27 34 34 35 36 40 43 44 42 39 33 38 45 48
19 24 25 27 31 34 36 37 38 39 41 42 42 41 41 39 37 35 33 25 29 27 24 18 15 15 17 17 21 25 29 28 33 36 39 40 41 40 39 35 35 38 47
16 19 18 20 26 30 32 34 35 39 40 41 40 42 43 41 38 36 30 32 30 26 21 14 14 13 11 16 20 22 25 26 30 34 37 40 41 41 41 40 38 42 46
19 21 21 17 22 27 30 32 36 38 41 43 44 44 45 43 40 36 32 33 29 25 18 15 12 8 8 13 16 19 22 26 29 33 37 40 41 42 44 45 43 47 49
30 28 28 31 27 27 29 33 37 40 44 46 47 49 46 43 41 36 35 29 26 22 16 12 10 7 9 11 14 16 21 25 28 33 37 40 42 45 46 40 48 48 48
36 37 35 34 35 35 36 37 38 42 45 48 51 49 47 46 39 34 30 27 22 18 15 12 8 8 11 10 13 17 21 25 29 33 36 40 43 45 45 42 46 50 48
37 41 42 38 39 40 40 40 40 44 45 46 45 45 43 39 37 32 28 23 19 16 13 9 7 10 11 12 15 19 21 25 29 33 36 39 42 46 45 47 48 46 48
38 38 42 44 40 41 41 42 44 31 33 41 46 44 43 36 30 28 23 22 18 16 13 10 8 9 11 12 15 19 24 26 30 33 37 41 43 44 41 50 49 47 48
45 40 42 43 42 41 42 43 43 43 40 35 29 43 35 33 32 27 26 24 21 16 13 10 8 8 11 13 16 19 24 28 31 34 39 42 42 41 47 49 49 48 49
39 44 43 41 40 39 39 37 39 38 40 41 38 32 35 36 32 29 28 23 20 15 13 11 8 8 11 14 16 19 23 27 31 34 40 43 44 43 49 49 51 50 48
33 36 40 39 38 36 34 35 38 42 45 44 44 42 41 37 37 36 29 24 19 15 13 11 7 8 11 14 16 19 23 27 31 34 40 44 42 50 50 52 52 52 50
34 33 37 39 37 35 35 38 41 46 47 46 46 45 45 44 41 30 28 23 18 15 13 8 7 8 11 14 16 19 23 26 30 33 40 44 45 54 52 52 53 51 49
31 35 35 37 36 34 36 41 45 46 48 49 46 41 42 37 31 28 24 20 17 15 10 7 7 9 11 14 17 19 23 26 30 32 39 44 53 53 53 54 53 51 49
32 34 33 33 32 31 35 41 46 49 51 46 44 41 39 37 30 26 21 19 16 11 8 8 8 9 12 14 16 18 22 24 27 30 39 46 53 53 54 53 54 51 53
29 30 31 30 32 34 38 41 45 47 44 43 43 41 36 34 29 25 22 17 12 9 8 9 9 10 12 14 15 16 18 20 24 28 37 45 49 52 54 54 54 53 52
23 26 27 29 33 35 37 39 38 40 41 42 40 36 34 30 27 23 17 13 10 9 9 10 11 11 13 14 15 17 17 19 20 26 36 43 46 51 53 53 54 55 53
17 20 23 25 28 29 31 35 39 40 38 38 35 32 31 27 22 17 14 12 10 9 10 11 12 13 14 14 15 17 17 19 22 27 36 42 45 50 52 52 53 54 54
Wind_Direction
241 241 241 242 242 242 243 244 243 244 245 241 237 235 235 236 237 236 238 243 248 254 260 262 269 275 283 290 292 293 294 295 293 299 301 304 305 308 307 306 305 305 306
244 243 244 245 246 246 246 246 246 245 243 241 236 234 235 237 237 238 239 243 246 252 257 262 269 276 283 287 291 293 294 294 294 297 300 303 303 306 308 308 308 307 305
244 245 245 247 248 248 248 248 247 245 242 239 235 234 235 235 236 236 240 242 246 251 255 262 270 276 282 286 290 293 294 294 295 295 297 301 303 308 312 309 306 304 304
255 253 251 250 251 250 248 247 246 245 240 237 236 235 234 234 234 235 237 241 245 247 252 260 269 276 283 287 291 293 293 294 295 296 297 302 305 306 301 301 303 301 296
261 255 252 253 252 249 247 247 245 243 241 238 234 232 231 231 232 233 236 239 243 246 251 260 269 282 282 289 292 294 294 297 301 299 293 295 295 300 299 298 296 298 294
260 257 255 251 251 248 246 243 241 239 236 233 231 231 230 230 231 234 236 239 242 245 252 261 276 278 286 288 292 289 283 287 289 290 288 287 293 295 297 296 293 294 294
265 258 251 250 249 247 244 240 237 235 232 229 228 228 229 230 231 234 236 239 241 245 252 268 268 276 286 292 289 289 289 287 282 286 286 286 292 295 297 295 291 289 287
264 259 254 250 248 244 240 237 235 232 229 227 227 227 227 227 229 232 235 238 239 246 258 262 268 277 287 288 295 298 301 301 301 297 292 292 291 294 293 292 293 288 285
264 259 255 249 244 241 236 233 231 228 225 225 226 227 227 225 226 228 231 232 236 247 257 262 269 283 285 294 297 300 300 299 301 297 291 291 291 289 290 287 283 287 285
272 261 252 246 244 241 237 233 230 228 228 225 225 225 227 225 224 226 227 227 236 246 252 259 273 287 296 295 301 296 292 303 306 307 305 302 304 306 310 291 288 284 285
299 279 267 256 246 241 237 232 229 224 222 222 222 225 225 222 222 223 226 228 236 239 242 251 268 278 288 296 295 295 300 305 302 304 306 308 315 319 321 311 291 284 283
316 302 278 267 255 245 237 233 226 224 221 221 220 219 220 219 219 222 225 234 234 234 241 247 253 268 294 302 303 308 311 311 312 311 316 320 322 323 323 318 303 292 288
288 289 294 284 263 251 242 234 226 224 223 220 218 218 216 215 215 219 222 230 233 231 231 234 248 265 288 303 309 314 319 321 323 324 324 325 327 326 325 325 312 301 295
282 275 274 276 272 257 246 239 235 230 225 222 218 214 214 214 213 213 217 216 220 225 220 228 235 261 290 304 311 323 326 329 331 330 328 329 329 332 326 315 308 307 301
284 274 265 258 252 248 245 245 242 239 235 229 222 216 213 213 216 220 221 220 218 220 214 218 238 262 279 304 322 327 329 333 333 333 332 332 334 330 320 311 310 306 300
280 276 266 257 252 245 239 235 231 231 228 228 231 218 216 218 216 208 209 216 212 216 212 219 246 276 297 319 331 330 336 335 337 336 336 336 334 324 317 313 312 306 303
276 275 272 260 249 244 238 232 226 221 223 219 215 212 213 217 207 201 188 199 205 212 219 222 243 278 306 325 331 338 336 336 337 338 340 340 339 320 316 315 314 310 306
271 274 270 262 253 244 237 232 225 219 202 194 193 206 204 190 192 189 199 198 201 207 224 236 253 288 309 321 330 338 336 338 340 340 341 342 335 327 319 318 316 313 309
269 264 266 259 254 245 237 230 224 206 191 179 172 183 184 185 180 184 200 195 202 206 223 239 256 292 307 316 328 336 336 340 341 339 343 342 338 327 324 322 319 315 311
265 266 261 256 247 238 231 224 207 193 184 179 179 180 176 172 178 196 191 191 197 206 222 238 264 289 303 312 324 332 335 342 342 342 342 344 337 334 332 326 322 317 314
255 258 256 249 241 234 226 210 193 185 183 180 188 191 186 188 190 185 182 190 193 206 220 233 261 286 303 314 321 330 336 342 343 341 343 343 335 340 341 329 324 320 318
247 248 241 233 226 216 206 194 188 187 186 195 190 183 188 188 184 182 184 190 197 209 219 239 261 284 306 317 321 326 337 341 342 341 343 344 339 345 343 333 329 326 324
236 235 226 218 216 209 199 195 192 193 195 194 183 180 187 185 185 186 186 194 202 208 226 249 267 287 303 315 318 324 334 340 341 342 347 344 340 348 346 337 335 331 329
222 219 213 206 199 195 190 188 191 196 194 183 182 187 180 183 185 187 191 195 202 216 239 259 274 286 295 305 316 321 328 338 341 344 350 341 339 349 349 344 345 338 336
200 197 196 195 189 188 188 191 193 189 182 180 181 180 179 181 184 187 189 195 209 227 249 264 276 285 291 302 315 324 327 337 343 352 344 337 343 350 350 348 351 349 345
185 187 188 187 189 190 192 187 179 177 176 177 175 175 178 181 183 186 192 204 216 236 255 272 280 283 289 302 316 325 332 340 351 356 339 340 345 348 351 350 355 356 350